When you browse on this site, cookies collect data to enhance your experience and personalize the content and advertising you see.
Visit our Privacy Policy to learn more. By continuing to use the site, you agree to this use of cookies and data.
  • In Portugal
  • List of Countries
  • For 7 days
  • Water Temperature
  • Weather Map
  • Weather Widgets
  • user-avatar
    Login

    Hourly Weather Cardiff

    Today, 22 October, Tuesday

    Time Temperature Precipitation Wind Pressure Humidity
    00:00 +8°C° 0 mm 1 mps 765 mmHg 86%
    01:00 +8°C° 0 mm 1 mps 765 mmHg 86%
    02:00 +8°C° 0 mm 1 mps 765 mmHg 86%
    03:00 +8°C° 0 mm 1 mps 765 mmHg 86%
    04:00 +8°C° 0 mm 1 mps 765 mmHg 88%
    05:00 +7°C° 0 mm 1 mps 765 mmHg 89%
    06:00 +7°C° 0 mm 1 mps 765 mmHg 90%
    07:00 +8°C° 0 mm 1 mps 765 mmHg 88%
    08:00 +9°C° 0 mm 1 mps 765 mmHg 87%
    09:00 +10°C° 0 mm 2 mps 765 mmHg 85%
    10:00 +12°C° 0 mm 2 mps 765 mmHg 81%
    11:00 +13°C° 0 mm 2 mps 765 mmHg 76%
    12:00 +14°C° 0 mm 2 mps 765 mmHg 72%
    13:00 +14°C° 0 mm 2 mps 765 mmHg 72%
    14:00 +14°C° 0 mm 2 mps 764 mmHg 71%
    15:00 +14°C° 0 mm 2 mps 764 mmHg 71%
    16:00 +12°C° 0 mm 2 mps 764 mmHg 76%
    17:00 +10°C° 0 mm 2 mps 764 mmHg 81%
    18:00 +9°C° 0 mm 1 mps 764 mmHg 86%
    19:00 +9°C° 0 mm 1 mps 764 mmHg 86%
    20:00 +9°C° 0 mm 1 mps 763 mmHg 87%
    21:00 +9°C° 0 mm 1 mps 763 mmHg 88%
    22:00 +9°C° 0 mm 1 mps 763 mmHg 89%
    23:00 +9°C° 0 mm 1 mps 763 mmHg 90%

    Tomorrow, 23 October, Wednesday

    Time Temperature Precipitation Wind Pressure Humidity
    00:00 +8°C° 0 mm 1 mps 763 mmHg 91%
    01:00 +8°C° 0 mm 1 mps 762 mmHg 92%
    02:00 +8°C° 0 mm 1 mps 761 mmHg 93%
    03:00 +8°C° 0 mm 1 mps 761 mmHg 94%
    04:00 +8°C° 0 mm 1 mps 760 mmHg 95%
    05:00 +8°C° 0 mm 1 mps 760 mmHg 95%
    06:00 +7°C° 0 mm 1 mps 760 mmHg 96%
    07:00 +8°C° 0 mm 1 mps 759 mmHg 95%
    08:00 +9°C° 0 mm 1 mps 759 mmHg 93%
    09:00 +10°C° 0 mm 2 mps 759 mmHg 92%
    10:00 +12°C° 0 mm 2 mps 758 mmHg 88%
    11:00 +13°C° 0 mm 2 mps 758 mmHg 84%
    12:00 +14°C° 0 mm 2 mps 757 mmHg 80%
    13:00 +14°C° 0 mm 2 mps 757 mmHg 81%
    14:00 +13°C° 0 mm 3 mps 756 mmHg 83%
    15:00 +13°C° 0 mm 3 mps 755 mmHg 84%
    16:00 +13°C° 0 mm 2 mps 755 mmHg 87%
    17:00 +12°C° 0 mm 2 mps 754 mmHg 91%
    18:00 +10°C° 0 mm 2 mps 754 mmHg 94%
    19:00 +10°C° 0.2 mm 2 mps 754 mmHg 94%
    20:00 +12°C° 0.2 mm 2 mps 753 mmHg 95%
    21:00 +12°C° 0.2 mm 2 mps 753 mmHg 95%
    22:00 +12°C° 0.3 mm 1 mps 753 mmHg 95%
    23:00 +12°C° 0.3 mm 1 mps 752 mmHg 95%

    Day after tomorrow, 24 October, Thursday

    Time Temperature Precipitation Wind Pressure Humidity
    00:00 +12°C° 0.3 mm 1 mps 752 mmHg 95%
    01:00 +11°C° 0 mm 1 mps 751 mmHg 94%
    02:00 +11°C° 0 mm 1 mps 751 mmHg 93%
    03:00 +11°C° 0 mm 1 mps 750 mmHg 92%
    04:00 +10°C° 0 mm 2 mps 750 mmHg 91%
    05:00 +9°C° 0 mm 2 mps 750 mmHg 90%
    06:00 +9°C° 0 mm 2 mps 750 mmHg 90%
    07:00 +10°C° 0.1 mm 2 mps 750 mmHg 91%
    08:00 +10°C° 0.1 mm 2 mps 750 mmHg 92%
    09:00 +11°C° 0.1 mm 3 mps 750 mmHg 93%
    10:00 +12°C° 0.1 mm 4 mps 750 mmHg 88%
    11:00 +13°C° 0.1 mm 4 mps 750 mmHg 84%
    12:00 +14°C° 0.1 mm 5 mps 750 mmHg 79%
    13:00 +13°C° 0.1 mm 6 mps 750 mmHg 79%
    14:00 +12°C° 0.1 mm 7 mps 750 mmHg 79%
    15:00 +12°C° 0.1 mm 7 mps 750 mmHg 79%
    16:00 +11°C° 0.1 mm 8 mps 751 mmHg 81%
    17:00 +10°C° 0.1 mm 8 mps 751 mmHg 83%
    18:00 +9°C° 0.1 mm 8 mps 751 mmHg 85%
    19:00 +9°C° 0.2 mm 8 mps 752 mmHg 86%
    20:00 +9°C° 0.2 mm 7 mps 753 mmHg 86%
    21:00 +9°C° 0.2 mm 7 mps 754 mmHg 87%
    22:00 +8°C° 0.1 mm 7 mps 754 mmHg 86%
    23:00 +7°C° 0.1 mm 6 mps 755 mmHg 85%

    25 October, Friday

    Time Temperature Precipitation Wind Pressure Humidity
    00:00 +5°C° 0.1 mm 6 mps 755 mmHg 84%
    01:00 +6°C° 0 mm 5 mps 756 mmHg 83%
    02:00 +6°C° 0 mm 4 mps 756 mmHg 81%
    03:00 +5°C° 0 mm 3 mps 757 mmHg 80%
    04:00 +7°C° 0 mm 3 mps 757 mmHg 80%
    05:00 +7°C° 0 mm 3 mps 757 mmHg 80%
    06:00 +7°C° 0 mm 3 mps 757 mmHg 80%
    07:00 +7°C° 0.3 mm 2 mps 757 mmHg 82%
    08:00 +7°C° 0.3 mm 2 mps 757 mmHg 85%
    09:00 +8°C° 0.3 mm 1 mps 756 mmHg 88%
    10:00 +7°C° 1.7 mm 2 mps 755 mmHg 90%
    11:00 +6°C° 1.7 mm 4 mps 754 mmHg 93%
    12:00 +6°C° 1.7 mm 5 mps 753 mmHg 95%
    13:00 +6°C° 3.4 mm 5 mps 752 mmHg 96%
    14:00 +7°C° 3.4 mm 6 mps 750 mmHg 97%
    15:00 +7°C° 3.4 mm 6 mps 749 mmHg 98%
    16:00 +5°C° 2 mm 6 mps 750 mmHg 95%
    17:00 +4°C° 2 mm 6 mps 750 mmHg 93%
    18:00 +3°C° 2 mm 6 mps 751 mmHg 90%
    19:00 +3°C° 0 mm 5 mps 752 mmHg 90%
    20:00 +2°C° 0 mm 5 mps 754 mmHg 90%
    21:00 +2°C° 0 mm 5 mps 755 mmHg 90%
    22:00 +2°C° 0 mm 5 mps 756 mmHg 88%
    23:00 +2°C° 0 mm 5 mps 757 mmHg 85%

    26 October, Saturday

    Time Temperature Precipitation Wind Pressure Humidity
    00:00 +2°C° 0 mm 5 mps 758 mmHg 83%
    01:00 +2°C° 0 mm 5 mps 758 mmHg 84%
    02:00 +3°C° 0 mm 4 mps 759 mmHg 85%
    03:00 +1°C° 0 mm 4 mps 760 mmHg 85%
    04:00 +1°C° 0 mm 4 mps 760 mmHg 85%
    05:00 +2°C° 0 mm 3 mps 761 mmHg 84%
    06:00 +2°C° 0 mm 3 mps 761 mmHg 84%
    07:00 +3°C° 0 mm 3 mps 762 mmHg 81%
    08:00 +5°C° 0 mm 2 mps 762 mmHg 78%
    09:00 +6°C° 0 mm 2 mps 762 mmHg 75%
    10:00 +7°C° 0 mm 2 mps 763 mmHg 71%
    11:00 +8°C° 0 mm 3 mps 763 mmHg 67%
    12:00 +9°C° 0 mm 3 mps 763 mmHg 63%
    13:00 +9°C° 0 mm 3 mps 763 mmHg 65%
    14:00 +9°C° 0 mm 3 mps 763 mmHg 66%
    15:00 +9°C° 0 mm 3 mps 763 mmHg 68%
    16:00 +8°C° 0.1 mm 3 mps 763 mmHg 72%
    17:00 +7°C° 0.1 mm 3 mps 763 mmHg 76%
    18:00 +5°C° 0.1 mm 2 mps 763 mmHg 80%
    19:00 +5°C° 0 mm 2 mps 764 mmHg 79%
    20:00 +5°C° 0 mm 2 mps 764 mmHg 79%
    21:00 +5°C° 0 mm 2 mps 764 mmHg 78%
    22:00 +4°C° 0 mm 2 mps 765 mmHg 79%
    23:00 +3°C° 0 mm 3 mps 765 mmHg 79%

    27 October, Sunday

    Time Temperature Precipitation Wind Pressure Humidity
    00:00 +3°C° 0 mm 3 mps 765 mmHg 80%
    01:00 +4°C° 0 mm 2 mps 765 mmHg 79%
    02:00 +4°C° 0 mm 2 mps 765 mmHg 79%
    03:00 +4°C° 0 mm 2 mps 765 mmHg 78%
    04:00 +3°C° 0 mm 2 mps 765 mmHg 78%
    05:00 +3°C° 0 mm 2 mps 766 mmHg 77%
    06:00 +4°C° 0 mm 1 mps 766 mmHg 77%
    07:00 +5°C° 0 mm 1 mps 766 mmHg 76%
    08:00 +6°C° 0 mm 1 mps 766 mmHg 74%
    09:00 +7°C° 0 mm 1 mps 766 mmHg 73%
    10:00 +8°C° 0 mm 1 mps 766 mmHg 72%
    11:00 +9°C° 0 mm 1 mps 766 mmHg 70%
    12:00 +10°C° 0 mm 1 mps 766 mmHg 69%
    13:00 +10°C° 0 mm 1 mps 766 mmHg 70%
    14:00 +10°C° 0 mm 1 mps 766 mmHg 71%
    15:00 +10°C° 0 mm 1 mps 766 mmHg 73%
    16:00 +8°C° 0 mm 2 mps 766 mmHg 78%
    17:00 +7°C° 0 mm 2 mps 766 mmHg 82%
    18:00 +5°C° 0 mm 2 mps 766 mmHg 87%
    19:00 +5°C° 0 mm 2 mps 766 mmHg 89%
    20:00 +5°C° 0 mm 2 mps 766 mmHg 90%
    21:00 +4°C° 0 mm 3 mps 766 mmHg 91%
    22:00 +4°C° 0 mm 3 mps 766 mmHg 92%
    23:00 +3°C° 0 mm 3 mps 765 mmHg 92%

    28 October, Monday

    Time Temperature Precipitation Wind Pressure Humidity
    00:00 +3°C° 0 mm 4 mps 765 mmHg 93%
    01:00 +3°C° 0 mm 4 mps 765 mmHg 92%
    02:00 +3°C° 0 mm 4 mps 765 mmHg 91%
    03:00 +3°C° 0 mm 4 mps 764 mmHg 91%
    04:00 +1°C° 0 mm 5 mps 764 mmHg 91%
    05:00 +1°C° 0 mm 5 mps 764 mmHg 92%
    06:00 +1°C° 0 mm 5 mps 764 mmHg 92%
    07:00 +1°C° 0 mm 5 mps 764 mmHg 91%
    08:00 +2°C° 0 mm 6 mps 764 mmHg 90%
    09:00 +3°C° 0 mm 7 mps 763 mmHg 88%
    10:00 +4°C° 0 mm 7 mps 763 mmHg 85%
    11:00 +5°C° 0 mm 8 mps 763 mmHg 83%
    12:00 +5°C° 0 mm 9 mps 763 mmHg 80%
    13:00 +5°C° 0.1 mm 9 mps 762 mmHg 80%
    14:00 +5°C° 0.1 mm 9 mps 762 mmHg 81%
    15:00 +5°C° 0.1 mm 9 mps 761 mmHg 81%
    16:00 +5°C° 0.9 mm 10 mps 761 mmHg 83%
    17:00 +5°C° 0.9 mm 10 mps 760 mmHg 85%
    18:00 +3°C° 0.9 mm 10 mps 760 mmHg 87%
    19:00 +3°C° 1.6 mm 10 mps 760 mmHg 89%
    20:00 +3°C° 1.6 mm 11 mps 759 mmHg 91%
    21:00 +3°C° 1.6 mm 11 mps 759 mmHg 92%
    22:00 +3°C° 0.6 mm 11 mps 759 mmHg 92%
    23:00 +3°C° 0.6 mm 11 mps 758 mmHg 93%
    Show more